x

Buoy A01 - Mass. Bay/stellwagen (44029) Wave Buoy

11:04am - Thu 23rd Nov 2017 All times are EST. -5 hours from GMT.

  • Sig Wave height 3.6ft
  • Peak Period 11s
  • Wind
    13mph, 16mph gusts
  • Sea Temp 49°f
  • Air Temp 35°f
  • Sea Pressure 1015.1mb
  • Buoy A01 - Mass. Bay/stellwagen
  • Buoy A01 - Mass. Bay/stellwagen

More Historic Weather Station data

Upgrade to MSW Pro to gain access to the past 30 days of data for over 8000 Wavebouys and Weather Stations around the globe.

Join

Comparision Forecast

View Surf forecast
   
Thu 11/23 11:04am 3.5ft 11s 13 16 mph 1015.1mb 49f 35f
10:04am 2.5ft 3s 16 20 mph 1015.3mb 49f 35f
9:04am 2.5ft 3s 18 22 mph 1015.5mb 49f 34f
8:04am 2.5ft 3s 20 25 mph 1015.4mb 49f 34f
7:04am 3ft 3s 20 22 mph 1015.7mb 49f 34f
6:04am 2.5ft 3s 20 25 mph 1015.4mb 49f 35f
5:04am 2.5ft 3s 18 25 mph 1014.2mb 49f 35f
4:04am 3ft 3s 22 25 mph 1013.6mb 49f 36f
3:04am 3ft 5s 20 25 mph 1013.6mb 49f 37f
2:04am 4ft 4s 22 27 mph 1012.9mb 49f 38f
1:04am 4ft 5s 22 27 mph 1012.4mb 49f 39f
12:04am 4ft 6s 22 27 mph 1012mb 49f 40f
Wed 11/22 11:04pm 3.5ft 4s 22 27 mph 1011.1mb 49f 41f
10:04pm 4ft 4s 22 27 mph 1010.7mb 49f 41f
9:04pm 3.5ft 4s 27 36 mph 1010.2mb 49f 42f
8:04pm 3.5ft 4s 27 34 mph 1009.5mb 49f 42f
7:04pm 4ft 4s 25 34 mph 1008.5mb 49f 44f
6:04pm 2.5ft 3s 22 29 mph 1008.4mb 49f 45f
5:04pm 2.5ft 3s 20 25 mph 1007.7mb 49f 47f
4:04pm 2ft 6s 20 22 mph 1007.3mb 49f 48f
3:04pm 1.3ft 6s 16 20 mph 1007.2mb 49f 49f
2:04pm 1.3ft 6s 9 11 mph 1007.2mb 49f 51f
1:04pm 1.6ft 6s 11 13 mph 1007.7mb 49f 51f
12:04pm 1.3ft 5s 9 11 mph 1009.9mb 49f 51f
11:04am 1.6ft 6s 7 7 mph 1011.4mb 49f 51f
10:04am 1.6ft 6s 7 9 mph 1012.4mb 49f 51f
9:04am 2ft 8s 7 9 mph 1012.9mb 49f 52f
8:04am 1.6ft 3s 4 7 mph 1013.3mb 49f 52f
7:04am 1.6ft 3s 9 11 mph 1013.4mb 49f 52f
6:04am 1.6ft 3s 13 13 mph 1013.8mb 49f 52f
5:04am 2ft 8s 13 16 mph 1014.7mb 49f 52f
4:04am 1.6ft 4s 16 16 mph 1015.1mb 49f 52f
3:04am 1.6ft 4s 11 13 mph 1015mb 49f 52f
Tue 11/21 11:04pm 2.5ft 3s 13 18 mph 1015.9mb 49f 52f
10:04pm 2.5ft 4s 16 18 mph 1015.6mb 49f 53f
9:04pm 2.5ft 5s 16 18 mph 1015.6mb 49f 52f
8:04pm 3.5ft 5s 16 18 mph 1015.5mb 49f 52f
7:04pm 3.5ft 5s 16 20 mph 1015.5mb 49f 52f
6:04pm 4ft 5s 20 25 mph 1015.3mb 49f 53f
4:04pm 4.5ft 5s 20 25 mph 1015mb 49f 53f
3:04pm 4.5ft 5s 22 27 mph 1014.6mb 49f 53f
2:04pm 4.5ft 5s 20 25 mph 1014.4mb 49f 54f
1:04pm 3.5ft 5s 20 22 mph 1015.1mb 49f 54f
12:04pm 3.5ft 5s 16 18 mph 1016.3mb 49f 52f
11:04am 3.5ft 4s 18 22 mph 1017.5mb 49f 51f
10:04am 3.5ft 4s 20 25 mph 1018.5mb 49f 49f
9:04am 2.5ft 4s 20 22 mph 1018.9mb 49f 46f
8:04am 2.5ft 4s 16 18 mph 1019mb 49f 45f
7:04am 2.5ft 4s 18 22 mph 1018.8mb 49f 45f
6:04am 3ft 4s 20 22 mph 1018.4mb 49f 45f
5:04am 2.5ft 4s 18 22 mph 1018.2mb 49f 45f
4:04am 2.5ft 4s 18 22 mph 1018mb 49f 45f
3:04am 3ft 4s 20 22 mph 1018.1mb 49f 45f
2:04am 2.5ft 4s 20 25 mph 1018.1mb 49f 45f
1:04am 2.5ft 4s 18 20 mph 1017.6mb 49f 44f
12:04am 3ft 4s 20 22 mph 1017.1mb 49f 44f
Mon 11/20 11:04pm 3ft 4s 22 27 mph 1017mb 49f 44f
10:04pm 3.5ft 5s 22 27 mph 1016.4mb 49f 43f
9:04pm 3.5ft 5s 20 27 mph 1015.7mb 49f 43f
8:04pm 3.5ft 4s 27 31 mph 1015.1mb 49f 43f
7:04pm 3.5ft 4s 27 31 mph 1014.3mb 49f 43f
6:04pm 3.5ft 5s 22 29 mph 1013.7mb 49f 43f
5:04pm 4.5ft 5s 22 29 mph 1012.9mb 49f 42f
4:04pm 4ft 5s 34 43 mph 1012.4mb 49f 42f
3:04pm 4ft 5s 25 31 mph 1011.3mb 49f 42f
2:04pm 3.5ft 5s 25 34 mph 1010.7mb 49f 42f
1:04pm 4ft 5s 25 31 mph 1010.4mb 49f 42f
12:04pm 4.5ft 5s 25 43 mph 1010.4mb 49f 41f
11:04am 4.5ft 4s 29 40 mph 1010.5mb 49f 40f
10:04am 4ft 5s 31 45 mph 1010.1mb 49f 39f
9:04am 4ft 5s 27 40 mph 1009.6mb 49f 38f
8:04am 3.5ft 5s 25 31 mph 1009.4mb 49f 38f
7:04am 3.5ft 4s 22 27 mph 1008.3mb 49f 39f
6:04am 3.5ft 5s 22 27 mph 1007.4mb 49f 39f
5:04am 3.5ft 4s 22 29 mph 1006.5mb 49f 40f
4:04am 3.5ft 4s 22 29 mph 1005.4mb 49f 40f
3:04am 3ft 4s 22 25 mph 1004.5mb 49f 40f
2:04am 3ft 4s 22 27 mph 1004.1mb 49f 40f
1:04am 3ft 4s 22 25 mph 1002.9mb 49f 40f
12:04am 3ft 4s 25 29 mph 1002.3mb 49f 41f
Sun 11/19 11:04pm 3ft 4s 22 29 mph 1001.7mb 49f 41f
10:04pm 3.5ft 5s 22 29 mph 1001.5mb 49f 41f
9:04pm 3.5ft 4s 25 29 mph 1000.7mb 49f 42f
8:04pm 4.5ft 5s 34 43 mph 999.6mb 50f 42f
7:04pm 4.5ft 5s 25 31 mph 998.3mb 50f 43f